Weather History for Panama City, FL

Change the Weather History Date:

Friday, March 22, 2013

  Actual Average Record
Temperature  
Mean Temperature 58 °F -  
Max Temperature 68 °F - 82 °F (2012)
Min Temperature 47 °F - 47 °F (2013)
Degree Days  
Heating Degree Days 7    
Cooling Degree Days 0    
Growing Degree Days 6 (Base 50)    
Moisture  
Dew Point 37 °F    
Average Humidity 59    
Maximum Humidity 86    
Minimum Humidity 32    
Precipitation  
Precipitation 0.00 in - 0.00 in (2014)
Month to date precipitation  
Year to date precipitation  
Sea Level Pressure  
Sea Level Pressure 29.98 in    
Wind  
Wind Speed 4 mph (ENE)    
Max Wind Speed 15 mph    
Max Gust Speed 21 mph    
Visibility 10 miles    
Events      
T = Trace of Precipitation, MM = Missing Value Source: NWS Daily Summary

Daily Weather History Graph

Daily Weather History Graph

Search for Another Location

Airport:

Trip Planner

Search our weather history database for the weather conditions in past years. The results will help you decide how hot, cold, wet, or windy it might be!

Date:

Astronomy

Mar. 22, 2013 Rise Set
Actual Time 7:44 AM EDT 7:56 PM EDT
Civil Twilight 7:20 AM EDT 8:20 PM EDT
Nautical Twilight 6:52 AM EDT 8:48 PM EDT
Astronomical Twilight 6:24 AM EDT 9:16 PM EDT
Moon 3:39 PM EDT (3/22) 4:26 AM EDT (3/22)
Length of Visible Light 12h 59m
Length of Day
12h 11m
Waxing Gibbous, 77% of the Moon is Illuminated
Mar 22
Waxing Gibbous
Mar 27
Full
Apr 3
Last Quarter
Apr 10
New
Apr 18
First Quarter

Hourly Weather History & Observations

Time (EDT) Temp. Dew Point Humidity Pressure Visibility Wind Dir Wind Speed Gust Speed Precip Events Conditions
12:53 AM 46.9 °F 42.1 °F 83% 29.97 in 10.0 mi Calm Calm - N/A   Partly Cloudy
1:53 AM 46.9 °F 43.0 °F 86% 29.96 in 10.0 mi Calm Calm - N/A   Mostly Cloudy
2:53 AM 48.0 °F 42.1 °F 80% 29.96 in 10.0 mi Calm Calm - N/A   Overcast
3:53 AM 48.9 °F 43.0 °F 80% 29.96 in 10.0 mi Calm Calm - N/A   Partly Cloudy
4:53 AM 48.9 °F 41.0 °F 74% 29.96 in 10.0 mi NNE 4.6 mph - N/A   Partly Cloudy
5:53 AM 50.0 °F 36.0 °F 59% 29.96 in 10.0 mi NE 4.6 mph - N/A   Overcast
6:53 AM 48.9 °F 35.1 °F 59% 29.98 in 10.0 mi Calm Calm - N/A   Overcast
7:53 AM 48.0 °F 35.1 °F 61% 30.02 in 10.0 mi Calm Calm - N/A   Mostly Cloudy
8:53 AM 51.1 °F 30.9 °F 46% 30.04 in 10.0 mi NE 8.1 mph - N/A   Mostly Cloudy
9:53 AM 52.0 °F 28.0 °F 40% 30.04 in 10.0 mi ENE 9.2 mph - N/A   Overcast
10:53 AM 57.0 °F 28.9 °F 34% 30.03 in 10.0 mi ENE 10.4 mph - N/A   Partly Cloudy
11:53 AM 60.1 °F 30.0 °F 32% 30.02 in 10.0 mi East 10.4 mph 20.7 mph N/A   Clear
12:53 PM 63.0 °F 35.1 °F 35% 30.01 in 10.0 mi East 12.7 mph 18.4 mph N/A   Scattered Clouds
1:53 PM 64.0 °F 35.1 °F 34% 29.99 in 10.0 mi ENE 5.8 mph - N/A   Mostly Cloudy
2:53 PM 64.9 °F 36.0 °F 34% 29.98 in 10.0 mi SE 6.9 mph - N/A   Overcast
3:53 PM 66.9 °F 39.0 °F 36% 29.96 in 10.0 mi East 8.1 mph - N/A   Overcast
4:53 PM 66.9 °F 36.0 °F 32% 29.94 in 10.0 mi ESE 8.1 mph - N/A   Mostly Cloudy
5:53 PM 66.9 °F 37.0 °F 33% 29.96 in 10.0 mi Calm Calm - N/A   Overcast
6:53 PM 66.0 °F 37.0 °F 34% 29.95 in 10.0 mi NE 6.9 mph - N/A   Overcast
7:53 PM 64.0 °F 37.9 °F 38% 29.95 in 10.0 mi ENE 4.6 mph - N/A   Overcast
8:53 PM 63.0 °F 39.0 °F 41% 29.96 in 10.0 mi ENE 4.6 mph - N/A   Overcast
9:53 PM 63.0 °F 37.0 °F 38% 29.98 in 10.0 mi ENE 4.6 mph - N/A   Overcast
10:53 PM 62.1 °F 37.9 °F 41% 29.97 in 10.0 mi ENE 4.6 mph - N/A   Overcast
11:09 PM 62.6 °F 37.4 °F 39% 29.94 in 10.0 mi ENE 4.6 mph - N/A   Overcast
11:53 PM 61.0 °F 37.0 °F 41% 29.96 in 10.0 mi ENE 5.8 mph - N/A   Overcast